Flag for U.S.A. Weather past 2 weeks in Boise, Idaho, U.S.A.

Now
64 °F

Sunny.


Feels Like: 64 °F
Forecast: 43 / 62 °F
Wind: 6 mph from Southeast

Location: Boise Air Terminal

Current Time: Mar 30, 2015 at 9:38:12 PM

Latest Report: Mar 30, 2015 at 8:53 PM


Visibility: 10 mi

Pressure: 29.88 "Hg

Humidity: 35%

Dew point: 36 °F

Location of BoiseLocation

Historic Weather in Boise — Graph

°F

Boise temperature yesterday

Maximum temperature yesterday: 66 °F (at 4:53 PM)
Minimum temperature yesterday: 38 °F (at 7:53 AM)
Average temperature yesterday: 52 °F

Past Weeks' High & Low Weather Summary

 TemperatureHumidityPressure
High77 °F (Mar 27, 5:53 PM)90% (Mar 26, 8:53 AM)30.43 "Hg (Mar 26, 8:53 AM)
Low33 °F (Mar 25, 3:53 AM)17% (Mar 30, 4:53 PM)29.82 "Hg (Mar 22, 11:53 PM)
Average52 °F53%30.12 "Hg
* Reported Mar 15 7:53 PM — Mar 30 7:53 PM, Boise, Weather by CustomWeather, © 2015

Note: Actual official high and low records may vary slightly from our data, if they occured in-between our weather recording intervals... More about our weather records

Advertising

Boise weather history for previous 24 hours

 ConditionsComfort  
Time TempWeatherWind HumidityBarometerVisibility
7:53 PM
Mon, Mar 30
70 °FSunny.5 mph27%29.89 "Hg10 mi
6:53 PM74 °FSunny.7 mph21%29.90 "Hg10 mi
5:53 PM75 °FSunny.8 mph18%29.92 "Hg10 mi
4:53 PM76 °FSunny.8 mph17%29.95 "Hg10 mi
3:53 PM75 °FSunny.9 mph18%29.98 "Hg10 mi
2:53 PM74 °FSunny.8 mph20%30.02 "Hg10 mi
1:53 PM71 °FSunny.10 mph23%30.06 "Hg10 mi
12:53 PM68 °FSunny.3 mph28%30.10 "Hg10 mi
11:53 AM64 °FSunny.9 mph32%30.12 "Hg10 mi
10:53 AM58 °FSunny.No wind38%30.14 "Hg10 mi
9:53 AM53 °FSunny.No wind43%30.16 "Hg10 mi
8:53 AM46 °FClear.No wind58%30.16 "Hg10 mi
7:53 AM40 °FClear.No wind70%30.16 "Hg10 mi
6:53 AM45 °FClear.3 mph53%30.13 "Hg10 mi
5:53 AM45 °FClear.6 mph53%30.12 "Hg10 mi
4:53 AM45 °FClear.7 mph56%30.12 "Hg10 mi
3:53 AM45 °FClear.3 mph56%30.13 "Hg10 mi
2:53 AM46 °FClear.6 mph54%30.13 "Hg10 mi
1:53 AM48 °FClear.9 mph50%30.13 "Hg10 mi
12:53 AM48 °FClear.8 mph52%30.14 "Hg10 mi
11:53 PM
Sun, Mar 29
49 °FClear.9 mph50%30.16 "Hg10 mi
10:53 PM52 °FClear.5 mph41%30.15 "Hg10 mi
9:53 PM54 °FSunny.No wind37%30.15 "Hg10 mi
Weather by CustomWeather, © 2015

See weather overviewHow to use our weather pages